User: anonymous   Login
Location: Chiroubles
(46.1812°N, 4.6660°E)
Time: 16:42:35
(UTC+00:00)
Language:

SR - Orbit

View from above orbital plane
View from above orbital plane
View from above satellite
View from above satellite

Ground track
Ground track

The orbit data is extracted from the following two-line orbital elements,

1    46U 60007B   21128.07146454  .00000020  00000-0  26868-4 0  9994
2    46  66.6904 249.3261 0217173 249.9318 107.8299 14.49394655186143
Epoch (UTC): 08 May 2021 01:42:54
Eccentricity: 0.0217173
inclination: 66.6904°
perigee height: 573 km
apogee height: 882 km
right ascension of ascending node: 249.3261°
argument of perigee: 249.9318°
revolutions per day: 14.49394655
mean anomaly at epoch: 107.8299°
orbit number at epoch: 18614

The dashed part of the orbit path shows where the satellite is in the earth's shadow,  

DLR